• In Russia
  • List of Countries
  • For 7 days
  • Water Temperature
  • Satellite Maps
  • Weather Map
  • Weather Widgets
  • user-avatar
    Login

    Hourly Weather Marcali

    Today, 24 August, Thursday

    Time Temperature Precipitation Wind Pressure Humidity
    00:00 +16°C° 0 mm 1 mps 752 mmHg 53%
    01:00 +16°C° 0 mm 1 mps 752 mmHg 54%
    02:00 +16°C° 0 mm 1 mps 752 mmHg 56%
    03:00 +15°C° 0 mm 1 mps 752 mmHg 58%
    04:00 +15°C° 0 mm 1 mps 752 mmHg 59%
    05:00 +16°C° 0 mm 1 mps 752 mmHg 57%
    06:00 +19°C° 0 mm 1 mps 752 mmHg 54%
    07:00 +20°C° 0 mm 1 mps 753 mmHg 51%
    08:00 +22°C° 0 mm 1 mps 753 mmHg 46%
    09:00 +25°C° 0 mm 2 mps 753 mmHg 41%
    10:00 +27°C° 0 mm 2 mps 753 mmHg 36%
    11:00 +29°C° 0 mm 2 mps 753 mmHg 34%
    12:00 +30°C° 0 mm 2 mps 752 mmHg 31%
    13:00 +31°C° 0 mm 2 mps 752 mmHg 29%
    14:00 +32°C° 0 mm 2 mps 752 mmHg 28%
    15:00 +32°C° 0 mm 2 mps 752 mmHg 28%
    16:00 +34°C° 0 mm 2 mps 751 mmHg 27%
    17:00 +30°C° 0 mm 2 mps 751 mmHg 33%
    18:00 +28°C° 0 mm 2 mps 751 mmHg 39%
    19:00 +26°C° 0 mm 2 mps 751 mmHg 45%
    20:00 +25°C° 0 mm 2 mps 752 mmHg 47%
    21:00 +24°C° 0 mm 1 mps 752 mmHg 50%
    22:00 +23°C° 0 mm 1 mps 752 mmHg 53%
    23:00 +23°C° 0 mm 2 mps 752 mmHg 54%

    Tomorrow, 25 August, Friday

    Time Temperature Precipitation Wind Pressure Humidity
    00:00 +21°C° 0 mm 2 mps 752 mmHg 56%
    01:00 +21°C° 0 mm 2 mps 752 mmHg 57%
    02:00 +20°C° 0 mm 2 mps 752 mmHg 59%
    03:00 +21°C° 0 mm 1 mps 752 mmHg 60%
    04:00 +20°C° 0 mm 1 mps 752 mmHg 62%
    05:00 +21°C° 0 mm 1 mps 752 mmHg 60%
    06:00 +22°C° 0 mm 1 mps 752 mmHg 57%
    07:00 +23°C° 0 mm 1 mps 753 mmHg 55%
    08:00 +26°C° 0 mm 2 mps 753 mmHg 49%
    09:00 +29°C° 0 mm 2 mps 753 mmHg 42%
    10:00 +31°C° 0 mm 2 mps 753 mmHg 36%
    11:00 +34°C° 0 mm 3 mps 752 mmHg 33%
    12:00 +35°C° 0 mm 3 mps 752 mmHg 29%
    13:00 +36°C° 0 mm 4 mps 751 mmHg 26%
    14:00 +36°C° 0 mm 4 mps 751 mmHg 26%
    15:00 +36°C° 0 mm 4 mps 751 mmHg 26%
    16:00 +37°C° 0 mm 4 mps 750 mmHg 26%
    17:00 +34°C° 0 mm 3 mps 750 mmHg 31%
    18:00 +31°C° 0 mm 2 mps 750 mmHg 36%
    19:00 +28°C° 0 mm 2 mps 750 mmHg 41%
    20:00 +27°C° 0 mm 1 mps 751 mmHg 44%
    21:00 +26°C° 0 mm 1 mps 751 mmHg 46%
    22:00 +26°C° 0 mm 1 mps 751 mmHg 48%
    23:00 +25°C° 0 mm 1 mps 751 mmHg 49%

    Day after tomorrow, 26 August, Saturday

    Time Temperature Precipitation Wind Pressure Humidity
    00:00 +24°C° 0 mm 1 mps 751 mmHg 51%
    01:00 +24°C° 0 mm 1 mps 751 mmHg 53%
    02:00 +23°C° 0 mm 1 mps 751 mmHg 55%
    03:00 +23°C° 0 mm 1 mps 751 mmHg 57%
    04:00 +22°C° 0 mm 1 mps 751 mmHg 58%
    05:00 +23°C° 0 mm 1 mps 751 mmHg 56%
    06:00 +24°C° 0 mm 1 mps 751 mmHg 53%
    07:00 +26°C° 0 mm 1 mps 751 mmHg 50%
    08:00 +28°C° 0 mm 1 mps 751 mmHg 44%
    09:00 +31°C° 0 mm 1 mps 751 mmHg 38%
    10:00 +34°C° 0 mm 1 mps 751 mmHg 31%
    11:00 +35°C° 0 mm 1 mps 751 mmHg 28%
    12:00 +37°C° 0 mm 2 mps 751 mmHg 25%
    13:00 +38°C° 0 mm 2 mps 750 mmHg 22%
    14:00 +38°C° 0 mm 2 mps 750 mmHg 21%
    15:00 +38°C° 0 mm 2 mps 750 mmHg 21%
    16:00 +38°C° 0 mm 2 mps 749 mmHg 21%
    17:00 +36°C° 0 mm 2 mps 749 mmHg 26%
    18:00 +32°C° 0 mm 2 mps 749 mmHg 31%
    19:00 +29°C° 0 mm 2 mps 750 mmHg 36%
    20:00 +28°C° 0 mm 1 mps 750 mmHg 39%
    21:00 +27°C° 0 mm 1 mps 750 mmHg 42%
    22:00 +26°C° 0 mm 1 mps 750 mmHg 45%
    23:00 +25°C° 0 mm 1 mps 750 mmHg 47%

    27 August, Sunday

    Time Temperature Precipitation Wind Pressure Humidity
    00:00 +25°C° 0 mm 1 mps 750 mmHg 49%
    01:00 +24°C° 0 mm 1 mps 750 mmHg 51%
    02:00 +24°C° 0 mm 1 mps 750 mmHg 52%
    03:00 +23°C° 0 mm 1 mps 750 mmHg 54%
    04:00 +23°C° 0 mm 1 mps 750 mmHg 56%
    05:00 +24°C° 0 mm 1 mps 750 mmHg 53%
    06:00 +26°C° 0 mm 1 mps 750 mmHg 50%
    07:00 +25°C° 0 mm 0 mps 750 mmHg 47%
    08:00 +29°C° 0 mm 1 mps 750 mmHg 42%
    09:00 +32°C° 0 mm 1 mps 750 mmHg 36%
    10:00 +35°C° 0 mm 1 mps 750 mmHg 30%
    11:00 +36°C° 0 mm 1 mps 750 mmHg 27%
    12:00 +38°C° 0 mm 2 mps 750 mmHg 24%
    13:00 +39°C° 0 mm 2 mps 749 mmHg 22%
    14:00 +39°C° 0 mm 2 mps 749 mmHg 21%
    15:00 +39°C° 0 mm 2 mps 749 mmHg 20%
    16:00 +39°C° 0 mm 2 mps 748 mmHg 20%
    17:00 +37°C° 0 mm 2 mps 748 mmHg 24%
    18:00 +34°C° 0 mm 2 mps 748 mmHg 28%
    19:00 +31°C° 0 mm 2 mps 748 mmHg 32%
    20:00 +30°C° 0 mm 2 mps 749 mmHg 35%
    21:00 +29°C° 0 mm 1 mps 749 mmHg 38%
    22:00 +28°C° 0 mm 1 mps 749 mmHg 41%
    23:00 +27°C° 0 mm 1 mps 749 mmHg 43%

    28 August, Monday

    Time Temperature Precipitation Wind Pressure Humidity
    00:00 +26°C° 0 mm 1 mps 749 mmHg 45%
    01:00 +23°C° 0 mm 0 mps 749 mmHg 47%
    02:00 +25°C° 0 mm 1 mps 749 mmHg 49%
    03:00 +24°C° 0 mm 1 mps 749 mmHg 51%
    04:00 +24°C° 0 mm 1 mps 749 mmHg 53%
    05:00 +25°C° 0 mm 2 mps 749 mmHg 51%
    06:00 +26°C° 0 mm 2 mps 749 mmHg 50%
    07:00 +28°C° 0 mm 3 mps 750 mmHg 48%
    08:00 +30°C° 0 mm 3 mps 750 mmHg 44%
    09:00 +33°C° 0 mm 4 mps 750 mmHg 39%
    10:00 +35°C° 0 mm 4 mps 750 mmHg 34%
    11:00 +36°C° 0 mm 4 mps 750 mmHg 31%
    12:00 +37°C° 0 mm 4 mps 749 mmHg 28%
    13:00 +38°C° 0 mm 4 mps 749 mmHg 24%
    14:00 +38°C° 0 mm 4 mps 749 mmHg 25%
    15:00 +39°C° 0 mm 5 mps 749 mmHg 26%
    16:00 +37°C° 0 mm 5 mps 749 mmHg 26%
    17:00 +35°C° 0.2 mm 4 mps 749 mmHg 34%
    18:00 +32°C° 0.2 mm 4 mps 749 mmHg 41%
    19:00 +28°C° 0.2 mm 3 mps 749 mmHg 48%
    20:00 +27°C° 0.1 mm 3 mps 750 mmHg 51%
    21:00 +27°C° 0.1 mm 3 mps 750 mmHg 53%
    22:00 +26°C° 0.1 mm 3 mps 751 mmHg 56%
    23:00 +25°C° 0 mm 3 mps 751 mmHg 59%

    29 August, Tuesday

    Time Temperature Precipitation Wind Pressure Humidity
    00:00 +24°C° 0 mm 3 mps 751 mmHg 61%
    01:00 +24°C° 0 mm 2 mps 751 mmHg 63%
    02:00 +23°C° 0 mm 2 mps 751 mmHg 65%
    03:00 +23°C° 0 mm 2 mps 751 mmHg 67%
    04:00 +21°C° 0 mm 2 mps 751 mmHg 68%
    05:00 +23°C° 0 mm 1 mps 752 mmHg 65%
    06:00 +24°C° 0 mm 1 mps 752 mmHg 61%
    07:00 +25°C° 0 mm 1 mps 752 mmHg 57%
    08:00 +28°C° 0 mm 1 mps 752 mmHg 51%
    09:00 +30°C° 0 mm 1 mps 752 mmHg 44%
    10:00 +32°C° 0 mm 1 mps 752 mmHg 37%
    11:00 +33°C° 0 mm 1 mps 751 mmHg 34%
    12:00 +35°C° 0 mm 2 mps 751 mmHg 31%
    13:00 +36°C° 0 mm 2 mps 750 mmHg 29%
    14:00 +36°C° 0 mm 2 mps 750 mmHg 28%
    15:00 +36°C° 0 mm 2 mps 750 mmHg 27%
    16:00 +36°C° 0 mm 2 mps 749 mmHg 26%
    17:00 +33°C° 0 mm 1 mps 749 mmHg 30%
    18:00 +31°C° 0 mm 1 mps 749 mmHg 35%
    19:00 +29°C° 0 mm 1 mps 749 mmHg 39%
    20:00 +28°C° 0 mm 1 mps 750 mmHg 42%
    21:00 +27°C° 0 mm 1 mps 750 mmHg 44%
    22:00 +26°C° 0 mm 1 mps 750 mmHg 46%
    23:00 +25°C° 0 mm 1 mps 750 mmHg 48%
    Show more